Location: NJAA Observatory
(40.6819°N, 74.8979°W)
Time: 20:38:18
(UTC-04:00)

Cosmos 2237 Rocket - Visible Passes

Search period start: 24 July 2014 00:00
Search period end: 03 August 2014 00:00
Orbit: 834 x 852 km, 71.0° (Epoch: 24 July)

Date Brightness Start Highest point End Pass type
(mag) Time Alt. Az. Time Alt. Az. Time Alt. Az.
24 Jul 2.4 00:34:25 10° NNW 00:39:31 62° WNW 00:39:31 62° WNW visible
24 Jul 4.0 22:36:41 10° N 22:40:43 19° NE 22:43:07 15° E visible
25 Jul 2.3 00:19:40 10° NNW 00:24:56 66° W 00:24:56 66° W visible
25 Jul 4.1 22:22:01 10° N 22:25:57 19° NE 22:28:33 14° E visible
26 Jul 2.2 00:04:55 10° NNW 00:10:23 71° W 00:10:23 71° W visible
26 Jul 4.1 22:07:21 10° N 22:11:10 18° NE 22:14:02 13° E visible
26 Jul 2.1 23:50:10 10° NNW 23:55:51 76° WSW 23:55:51 76° WSW visible
27 Jul 4.1 21:52:42 10° N 21:56:23 17° NE 21:59:32 12° E visible
27 Jul 2.1 23:35:25 10° NNW 23:41:08 79° WSW 23:41:22 77° SW visible
28 Jul 4.1 21:38:03 10° N 21:41:36 17° NE 21:45:04 10° E visible
28 Jul 2.0 23:20:40 10° NNW 23:26:24 83° WSW 23:26:54 74° S visible
29 Jul 4.2 21:23:24 10° NNE 21:26:49 16° NE 21:30:12 10° E visible
29 Jul 2.1 23:05:56 10° NNW 23:11:40 86° WSW 23:12:28 67° SSE visible
30 Jul 4.6 00:53:38 10° W 00:54:18 11° W 00:54:18 11° W visible
30 Jul 4.2 21:08:46 10° NNE 21:12:02 15° NE 21:15:16 10° E visible
30 Jul 2.1 22:51:11 10° NNW 22:56:55 90° ENE 22:58:05 59° SSE visible
31 Jul 4.5 00:38:24 10° WNW 00:39:55 11° W 00:39:55 11° W visible
31 Jul 4.2 20:54:09 10° NNE 20:57:15 15° NE 21:00:20 10° E visible
31 Jul 2.1 22:36:27 10° NNW 22:42:11 86° ENE 22:43:44 51° SSE visible
01 Aug 4.5 00:23:19 10° WNW 00:25:23 12° W 00:25:34 12° W visible
01 Aug 2.1 22:21:43 10° NNW 22:27:27 83° ENE 22:29:25 43° SSE visible
02 Aug 4.4 00:08:17 10° WNW 00:10:41 13° W 00:11:15 13° WSW visible
02 Aug 2.2 22:06:58 10° NNW 22:12:42 79° ENE 22:15:08 36° SSE visible
02 Aug 4.4 23:53:19 10° WNW 23:55:59 14° W 23:56:59 13° WSW visible
